Location: Laterina
(43.5167°N, 11.7167°E)
Time: 08:19:20
(UTC+00:00)

Cosmos 2026 Rocket - Pass Details

Date: 21 January 2021
Orbit: 940 x 1000 km, 82.9° (Epoch: 08 March)

Event Time Altitude Azimuth Distance (km) Brightness Sun altitude
Rises 04:39:16 0° 358° (N) 3,707 6.9 -21.6°
Reaches altitude 10° 04:42:00 10° 6° (N) 2,762 6.3 -21.1°
Maximum altitude 04:47:53 39° 74° (ENE) 1,464 5.4 -20.0°
Drops below altitude 10° 04:53:46 10° 142° (SE) 2,764 7.0 -19.0°
Sets 04:56:29 0° 150° (SSE) 3,710 7.6 -18.5°
